Location: Düngen
(52.0952°N, 10.0219°E)
Time: 15:35:51
(UTC+00:00)

Cosmos 2026 Rocket - Pass Details

Date: 11 March 2026
Orbit: 937 x 1000 km, 82.9° (Epoch: 14 April)

Event Time Altitude Azimuth Distance (km) Brightness Sun altitude
Rises 17:56:18 0° 181° (S) 3,660 7.0 -6.8°
Reaches altitude 10° 17:58:49 10° 179° (S) 2,708 6.3 -7.2°
Maximum altitude 18:04:58 73° 96° (E) 1,005 3.9 -8.1°
Drops below altitude 10° 18:11:05 10° 13° (NNE) 2,685 6.2 -9.1°
Sets 18:13:35 0° 12° (NNE) 3,628 6.9 -9.5°
